Weather in Yopal

Colombia     5°20′47″N   72°24′09″W
temp.,
°C
wind,
m/s
gust,
m/s
humid.,
%
clouds,
%
prec.,
mm/h
press.,
hPa
HPBL,
m
5 august, thu
thu501:00+21nw118583 0.4 101716
04:00+20w1192100 0.3 101814
07:00+20wsw1194100 0.5 101938
10:00+21wsw1292100 0.1 1020145
13:00+22ssw248596 0.2 1018286
16:00+23ssw357911 0.0 1015616
19:00+20wsw119666 0.0 101737
22:00+20w119098 0.0 101821
6 august, fri
fri601:00+19wnw118717 0.0 101615
04:00+19wnw118138 0.0 101612
07:00+20nw1179100 0.0 101715
10:00+25sse126589 0.0 1018509
13:00+26s236455 0.0 1016721
16:00+26s236815 0.1 1013811
19:00+21wnw219133 0.9 101515
22:00+20nw228967 0.0 101720
7 august, sat
sat701:00+19nw228530 0.0 101529
04:00+19nw227836 0.0 101522
07:00+21nw117641 0.0 101634
10:00+27sse22618 0.0 1016577
13:00+28s23605 0.1 10141146
16:00+27sw237365 1.0 1012913
19:00+21nw11925 2.7 101414
22:00+20nw21949 1.0 101523
8 august, sun
sun801:00+19nw229140 1.3 101423
04:00+19nw228770 0.0 101321
07:00+22nnw118266 0.0 101440
10:00+27se216526 0.0 1015670
13:00+28sse226617 0.5 10131120
16:00+27ssw127682 2.2 1011828
19:00+22nw229198 5.8 101320
22:00+20nw229438 2.2 101533
9 august, mon
mon901:00+19nw229398 4.6 101434
04:00+19nw22915 2.0 101321
07:00+22nw118624 2.0 101539
10:00+27se216613 0.0 1015673
13:00+29se21609 0.4 10131453
16:00+27w117396 2.3 1011710
19:00+22nw219277 3.7 101318
22:00+21nw219194 0.4 101522